This demonstration page uses our WeatherBlox Daily Observations layout. Learn more.

Left ArrowRight Arrow

41.12389, -100.76542

Hourly Observations for May 10, 2017

Temp ( °F °C ) Dew Point ( °F °C ) Humidity (%) Winds ( mph kmh ) Pressure ( in mb ) Visibility ( mi km ) Precip ( " mm )
12:53 am 00:53 Mostly Cloudy 59 15 48 8.9 67 67 ESE 8 13 29.84 1010 10 16 0.00 0.00
1:21 am 01:21 Cloudy with Strong Thunderstorms 57 13.9 51 10.6 81 81 S 20 31 29.88 1012 4 6 0.01 0.25
1:25 am 01:25 Cloudy with Strong Thunderstorms 55 13 52 11 88 88 SSE 20 31 29.91 1013 2 3 0.00 0.00
1:31 am 01:31 Cloudy with Strong Thunderstorms 55 12.8 52 11.1 90 90 S 8 13 29.91 1013 1 2 0.21 5.33
1:38 am 01:38 Cloudy with Strong Thunderstorms 54 12.2 52 11.1 93 93 SE 5 7 29.91 1013 2 3 0.31 7.87
1:53 am 01:53 Cloudy with Thunderstorms 54 12.2 52 11.1 93 93 E 10 17 29.88 1012 9 14 0.35 8.89
2:53 am 02:53 Cloudy with Rain 53 11.7 52 11.1 96 96 ENE 7 11 29.84 1011 5 8 0.23 5.84
3:53 am 03:53 Cloudy with Light Rain 52 11.1 51 10.6 97 97 E 14 22 29.80 1009 9 14 0.17 4.32
4:09 am 04:09 Cloudy with Light Rain 52 11 52 11 100 100 ESE 15 24 29.83 1010 10 16 0.00 0.00
4:53 am 04:53 Cloudy 52 11.1 51 10.6 97 97 E 8 13 29.77 1008 10 16 0.00 0.03
5:53 am 05:53 Cloudy 52 11.1 51 10.6 97 97 SSE 9 15 29.82 1010 10 16 0.00 0.00
6:53 am 06:53 Cloudy 53 11.7 51 10.6 93 93 NE 6 9 29.84 1011 9 14 0.00 0.00
7:53 am 07:53 Cloudy 53 11.7 52 11.1 96 96 NE 7 11 29.85 1011 8 13 0.00 0.00
8:53 am 08:53 Cloudy with Light Rain 53 11.7 52 11.1 96 96 E 7 11 29.89 1012 7 11 0.00 0.03
9:53 am 09:53 Cloudy 54 12.2 52 11.1 93 93 NNE 6 9 29.91 1013 10 16 0.00 0.03
10:53 am 10:53 Cloudy 55 12.8 52 11.1 90 90 NE 9 15 29.90 1012 10 16 0.00 0.00
11:53 am 11:53 Cloudy 54 12.2 51 10.6 90 90 NNE 16 26 29.91 1013 10 16 0.00 0.00
12:51 pm 12:51 Cloudy 55 13 52 11 88 88 NNE 13 20 29.94 1014 10 16 0.00 0.00
12:53 pm 12:53 Cloudy 56 13.3 51 10.6 84 84 NE 13 20 29.93 1014 10 16 0.00 0.00
1:53 pm 13:53 Cloudy 56 13.3 51 10.6 84 84 NNE 14 22 29.95 1014 10 16 0.00 0.00
2:53 pm 14:53 Cloudy 56 13.3 51 10.6 84 84 NNE 15 24 29.96 1015 10 16 0.00 0.00
3:53 pm 15:53 Cloudy 55 12.8 50 10 83 83 NNE 13 20 29.96 1015 10 16 0.00 0.00
4:53 pm 16:53 Cloudy 56 13.3 51 10.6 84 84 NNE 13 20 29.98 1015 10 16 0.00 0.00
5:34 pm 17:34 Cloudy 55 13 50 10 82 82 NNE 10 17 29.97 1015 10 16 0.00 0.00
5:53 pm 17:53 Cloudy 56 13.3 50 10 81 81 NNE 8 13 30.00 1016 10 16 0.00 0.00
6:53 pm 18:53 Cloudy 56 13.3 49 9.4 77 77 NNE 9 15 30.00 1016 10 16 0.00 0.00
7:43 pm 19:43 Cloudy 55 13 48 9 77 77 NNE 12 19 30.00 1016 10 16 0.00 0.00
7:53 pm 19:53 Cloudy 56 13.3 49 9.4 77 77 NNE 12 19 30.00 1016 10 16 0.00 0.00
8:44 pm 20:44 Cloudy 55 13 48 9 77 77 N 14 22 30.00 1016 10 16 0.00 0.00
8:53 pm 20:53 Cloudy 55 12.8 48 8.9 77 77 N 14 22 30.01 1016 10 16 0.00 0.00
9:53 pm 21:53 Cloudy 55 12.8 48 8.9 77 77 NNE 8 13 30.03 1017 10 16 0.00 0.00
10:53 pm 22:53 Cloudy 55 12.8 49 9.4 80 80 NE 8 13 30.04 1017 10 16 0.00 0.00
11:53 pm 23:53 Cloudy 54 12.2 49 9.4 83 83 E 6 9 30.05 1018 10 16 0.00 0.00

Powered by AerisWeather